THOR ABLESTAR DEB, 1522

Orbit data source: Space-Track

THOR ABLESTAR DEB, 1522 is space debris in LEO originally from a launch on Fri, 13 Aug 1965 UTC launched from the Air Force Western Test Range (AFWTR). Debris objects in space refer to the collection of defunct objects orbiting the Earth. Examples of debris include non-operational satellites, rocket bodies, and fragments generated from explosions, collisions, or faulty payload assembly.

Loading next visibility...
THOR ABLESTAR DEB details
Identifier
1522, 1965-065L
Orbit
LEO
Last TLE update19 hours ago
Origin
Flag of USUSN BuWeps (US)
ManufacturerUnknown
MissionSpacecraft
Bus & MotorUnknown
MassUnknown
Launch date (UTC)
1965-08-13 (59 years ago)
Launch vehicleUnknown
Launch site
Air Force Western Test Range (AFWTR)
Object type
Payload
Rocket body
Debris
Shape & HBRUnknown
Radar Cross SectionMedium (>0.1 m² and <1 m²)

Expand to show TLE details & history

TLE from 19 hours ago
0 THOR ABLESTAR DEB
1 01522U 65065L   24355.84388025  .00000093  00000-0  16933-3 0  9996
2 01522  90.1031 121.9906 0070239 335.2953 140.0094 13.33793460887364
Epoch: 2024-12-20T20:15Z
Definitive object data (Epoch: 2024-12-20T20:15:11.253Z)
Latitude64.26328°
Longitude-91.49706°
Altitude1,184.222 km
Speed7.248 km/s
True Right ascension20h 08m 48s
True Declination64° 08' 10"
Sunlit
Object was in daylight at TLE epoch
Visualization TLE readout
Latitude-67.4213°
Longitude88.54477°
Altitude1,117.672 km
Speed7.313 km/s
Apparent Right ascension04h 12m 31s
Apparent Declination-62° 30' 35"
Sunlit
Object is in daylight
Visualization observer readout
Local Sidereal Time14:11:05
Azimuth208.775° SW
Elevation-61.01°
Doppler factor1
Orbital elements
Apogee altitude1,182.295 km
Perigee altitude1,076.829 km
Semi-major axis7,507.699 km
Eccentricity0.0070239
Inclination90.1031°
RAAN121.9906°
Arg. of periapsis335.2953°
True anomaly140.5232°
Mean anomaly140.0094°
Eccentric anomaly140.26665°
Mean motion3.33644 °/min
BSTAR0.00016933
Orbital period107.9 mins
Loading maneuver chart data...
Loading historical data...
Loading historical data...
Loading historical data...
Loading historical data...
Loading historical data...
Loading historical data...
Loading historical data...

THOR ABLESTAR DEB Visibility forecast

Observer location: undefined°, undefined

Span
Click to sort rows by Start time (UTC) header in descending order
Start Az.
Max El. time (UTC)
Max El. Az.
Max El.
End time (UTC)
End Az.
10 mins2024-12-21 19:41:50.833Z32.447° NE2024-12-21 19:46:50.833Z82.905° E23.168°2024-12-21 19:51:50.833Z130.936° SE
12 mins2024-12-21 21:28:50.833Z351.557° N2024-12-21 21:34:50.833Z275.275° WNW39.905°2024-12-21 21:40:50.833Z204.254° SW
9 mins2024-12-22 07:49:50.833Z118.511° SE2024-12-22 07:53:50.833Z69.971° E25.204°2024-12-22 07:58:50.833Z21.133° NNE
11 mins2024-12-22 09:35:50.833Z205.068° SW2024-12-22 09:40:50.833Z272.074° WNW36.421°2024-12-22 09:46:50.833Z344.275° N
|